K6DJR Weather Reports


Display with metric or nautical units.
time (UTC)temp
F
wind
direction
speed
MPH
gust
MPH
rain 1hr
in
rain 24hr
in
rain mn
in
humidity
%
barometer
mb
20260510221508 64 232 1.0 9.0 0.00 0.04 0.03 50 1012.4
20260510220014 65 296 0.0 5.0 0.00 0.05 0.03 48 1012.2
20260510214517 65 247 1.0 9.0 0.00 0.06 0.03 51 1012.1
20260510213038 65 329 1.0 11.0 0.00 0.06 0.03 51 1012.1
20260510211517 64 221 1.0 6.0 0.00 0.07 0.03 55 1012.1
20260510210027 64 211 2.0 10.0 0.00 0.08 0.03 61 1012.1
20260510204516 64 342 3.0 9.0 0.00 0.09 0.03 63 1011.9
20260510203021 63 182 1.0 10.0 0.00 0.10 0.03 66 1012.0
20260510201525 63 348 2.0 8.0 0.00 0.13 0.03 65 1011.9
20260510200007 62 344 0.0 5.0 0.00 0.15 0.03 72 1012.1
20260510194512 61 17 0.0 4.0 0.00 0.18 0.03 73 1012.2
20260510193017 60 348 1.0 3.0 0.00 0.20 0.03 77 1012.3
20260510191524 59 348 3.0 8.0 0.00 0.23 0.03 78 1012.3
20260510190026 59 342 3.0 6.0 0.02 0.25 0.03 80 1012.4
20260510184508 58 302 5.0 9.0 0.02 0.27 0.03 81 1012.6
20260510183017 57 260 1.0 4.0 0.02 0.29 0.03 91 1012.7
20260510181551 55 338 2.0 6.0 0.02 0.31 0.03 93 1012.8
20260510180034 55 313 3.0 5.0 0.00 0.31 0.01 91 1012.9
20260510174544 54 360 1.0 4.0 0.00 0.33 0.01 91 1012.8
20260510173012 55 360 2.0 6.0 0.00 0.35 0.01 89 1012.8
20260510171519 55 350 2.0 9.0 0.00 0.37 0.01 86 1012.9
20260510170023 57 360 3.0 5.0 0.00 0.39 0.01 82 1012.6
20260510164526 58 360 0.0 3.0 0.00 0.40 0.01 83 1012.7
20260510163027 57 240 0.0 4.0 0.00 0.40 0.01 82 1012.8
20260510161511 57 127 1.0 3.0 0.00 0.40 0.01 82 1013.0
20260510160022 57 250 1.0 3.0 0.00 0.41 0.01 86 1012.8
20260510154524 56 242 0.0 3.0 0.00 0.42 0.01 87 1012.8
20260510153025 54 242 0.0 4.0 0.00 0.42 0.01 92 1012.8
20260510151526 53 74 0.0 3.0 0.00 0.42 0.01 95 1013.2
20260510150019 52 242 0.0 3.0 0.00 0.42 0.01 96 1013.2
20260510144520 51 198 0.0 2.0 0.00 0.42 0.01 98 1013.1
20260510143023 50 159 0.0 3.0 0.00 0.42 0.01 99 1013.0
20260510141534 49 38 0.0 2.0 0.00 0.42 0.01 98 1013.2
20260510140029 49 360 0.0 2.0 0.00 0.42 0.01 98 1013.2
20260510134518 49 38 0.0 2.0 0.00 0.42 0.01 98 1013.1
20260510133022 49 38 0.0 1.0 0.00 0.42 0.01 99 1012.8
20260510131525 48 360 0.0 1.0 0.00 0.42 0.01 98 1013.0
20260510130027 47 39 0.0 1.0 0.00 0.42 0.01 98 1013.2
20260510124516 46 38 0.0 2.0 0.00 0.42 0.01 98 1013.0
20260510123020 46 37 0.0 2.0 0.00 0.42 0.01 98 1013.1
20260510121504 46 37 0.0 2.0 0.00 0.42 0.01 98 1012.9
20260510120011 46 37 0.0 1.0 0.00 0.42 0.01 98 1012.9
20260510114512 45 37 0.0 1.0 0.00 0.42 0.01 98 1013.1
20260510113018 45 37 0.0 2.0 0.00 0.42 0.01 98 1013.1
20260510111521 44 37 0.0 1.0 0.00 0.42 0.01 98 1012.7
20260510110030 44 37 0.0 2.0 0.00 0.42 0.01 98 1012.5
20260510104513 44 37 0.0 1.0 0.00 0.42 0.01 98 1012.5
20260510103017 44 37 0.0 1.0 0.00 0.42 0.01 98 1011.7
20260510101519 44 37 0.0 1.0 0.00 0.42 0.01 98 1011.4
20260510100022 44 37 0.0 2.0 0.00 0.42 0.01 98 1011.8
20260510094515 44 37 0.0 2.0 0.00 0.42 0.01 98 1011.5
20260510093017 44 37 0.0 1.0 0.00 0.42 0.01 98 1011.3
20260510091519 44 37 0.0 1.0 0.00 0.42 0.01 98 1011.7
20260510090024 44 37 0.0 1.0 0.00 0.42 0.01 98 1011.8
20260510084530 44 37 0.0 2.0 0.00 0.42 0.01 98 1011.8
20260510083012 44 37 0.0 2.0 0.00 0.42 0.01 98 1012.1
20260510081523 43 37 1.0 3.0 0.01 0.42 0.01 98 1011.9
20260510080021 43 37 1.0 2.0 0.01 0.42 0.01 98 1011.7
20260510074527 43 37 0.0 1.0 0.01 0.42 0.01 98 1011.1
20260510073028 43 37 0.0 1.0 0.01 0.42 0.01 97 1011.9
20260510071518 43 340 0.0 3.0 0.00 0.41 0.00 97 1012.4
20260510070019 43 335 0.0 3.0 0.00 0.41 0.00 97 1012.2
20260510064520 43 10 0.0 2.0 0.00 0.41 0.00 97 1012.2
20260510063026 43 10 0.0 2.0 0.00 0.41 0.00 98 1012.2
20260510061524 43 10 0.0 1.0 0.00 0.41 0.00 98 1012.3
20260510060016 43 10 1.0 3.0 0.00 0.41 0.00 97 1012.1
20260510054520 43 245 0.0 1.0 0.00 0.41 0.00 97 1011.9
20260510053023 43 245 0.0 2.0 0.00 0.41 0.00 97 1012.4
20260510051527 43 245 0.0 2.0 0.00 0.41 0.00 97 1012.6
20260510050013 43 107 0.0 2.0 0.00 0.41 0.00 97 1012.5
20260510044518 43 173 0.0 1.0 0.00 0.41 0.00 97 1012.7
20260510043024 43 173 0.0 2.0 0.00 0.41 0.00 97 1012.7
20260510041524 43 108 0.0 1.0 0.00 0.41 0.00 97 1012.7
20260510040027 43 167 0.0 3.0 0.00 0.41 0.00 97 1012.6
20260510034516 43 107 0.0 7.0 0.00 0.41 0.41 97 1012.7
20260510033020 43 89 1.0 5.0 0.00 0.41 0.41 97 1012.8
20260510031536 43 169 0.0 2.0 0.00 0.41 0.41 97 1012.9
20260510030025 43 122 0.0 2.0 0.00 0.41 0.41 97 1013.1
20260510024540 43 347 0.0 3.0 0.00 0.41 0.41 97 1013.2
20260510023016 43 9 0.0 4.0 0.00 0.41 0.41 97 1013.0
20260510021525 43 132 1.0 6.0 0.00 0.41 0.41 97 1013.3
20260510020026 43 257 0.0 4.0 0.00 0.41 0.41 97 1013.2
20260510014525 43 349 0.0 3.0 0.00 0.41 0.41 97 1013.4
20260510013028 43 202 0.0 3.0 0.00 0.41 0.41 97 1013.5
20260510011506 43 277 1.0 6.0 0.00 0.41 0.41 96 1013.7
20260510010005 43 336 0.0 3.0 0.00 0.41 0.41 96 1013.4
20260510004503 43 47 1.0 6.0 0.00 0.41 0.41 96 1013.3
20260510003016 43 209 1.0 6.0 0.00 0.41 0.41 97 1013.1
20260510001511 43 175 0.0 3.0 0.00 0.41 0.41 97 1012.8
20260510000008 43 244 0.0 4.0 0.01 0.41 0.41 96 1012.7
20260509234517 43 315 0.0 4.0 0.01 0.41 0.41 96 1012.7
20260509233012 43 275 0.0 3.0 0.01 0.41 0.41 96 1012.5
20260509231507 44 190 0.0 2.0 0.01 0.41 0.41 96 1012.7
20260509230012 44 138 0.0 2.0 0.01 0.40 0.40 96 1012.7
20260509224508 44 173 1.0 4.0 0.02 0.40 0.40 96 1012.8
20260509223007 44 189 0.0 2.0 0.02 0.40 0.40 96 1012.8